DL4NBA-1 Weather Reports


Display with metric or nautical units.
time (UTC)temp
F
wind
direction
speed
MPH
gust
MPH
rain 1hr
in
rain 24hr
in
rain mn
in
humidity
%
barometer
mb
20260510060050 59 110 4.0 3.0 0.00 0.00 0.00
20260510053550 55 14 1.0 0.0 0.00 0.00 0.00
20260510053052 54 46 2.0 1.0 0.00 0.00 0.00
20260510051553 54 63 3.0 2.0 0.00 0.00 0.00
20260510051054 52 51 2.0 2.0 0.00 0.00 0.00
20260510050556 51 3 0.0 0.0 0.00 0.00 0.00
20260510050057 50 3 0.0 0.0 0.00 0.00 0.00
20260510045556 50 3 0.0 0.0 0.00 0.00 0.00
20260510044559 49 3 0.0 0.0 0.00 0.00 0.00
20260510044100 50 3 0.0 0.0 0.00 0.00 0.00
20260510043602 48 3 0.0 0.0 0.00 0.00 0.00
20260510043059 49 3 0.0 0.0 0.00 0.00 0.00
20260510042600 49 352 1.0 2.0 0.00 0.00 0.00
20260510041603 47 345 0.0 0.0 0.00 0.00 0.00
20260510041105 46 345 0.0 0.0 0.00 0.00 0.00
20260510040603 46 345 0.0 0.0 0.00 0.00 0.00
20260510040105 47 357 1.0 1.0 0.00 0.00 0.00
20260510035606 47 21 2.0 2.0 0.00 0.00 0.00
20260510035108 47 10 0.0 0.0 0.00 0.00 0.00
20260510034608 46 10 0.0 0.0 0.00 0.00 0.00
20260510034106 45 10 0.0 0.0 0.00 0.00 0.00
20260510030610 46 21 2.0 2.0 0.00 0.00 0.00
20260510030111 46 0 2.0 2.0 0.00 0.00 0.00
20260510025611 46 1 1.0 2.0 0.00 0.00 0.00
20260510025109 46 28 1.0 1.0 0.00 0.00 0.00
20260510024112 47 345 1.0 0.0 0.00 0.00 0.00
20260510023613 47 1 2.0 2.0 0.00 0.00 0.00
20260510023115 46 350 1.0 2.0 0.00 0.00 0.00
20260510022612 47 333 2.0 2.0 0.00 0.00 0.00
20260510022114 46 347 2.0 2.0 0.00 0.00 0.00
20260510021116 48 326 0.0 0.0 0.00 0.00 0.00
20260510020618 47 342 1.0 1.0 0.00 0.00 0.00
20260510020115 47 356 1.0 1.0 0.00 0.00 0.00
20260510015118 48 38 2.0 2.0 0.00 0.00 0.00
20260510014619 47 48 2.0 2.0 0.00 0.00 0.00
20260510014121 48 41 2.0 3.0 0.00 0.00 0.00
20260510013619 48 27 2.0 2.0 0.00 0.00 0.00
20260510012622 49 25 1.0 1.0 0.00 0.00 0.00
20260510012123 49 3 2.0 2.0 0.00 0.00 0.00
20260510011625 49 3 2.0 2.0 0.00 0.00 0.00
20260510011123 49 353 2.0 2.0 0.00 0.00 0.00
20260510005129 49 339 1.0 1.0 0.00 0.00 0.00
20260510003131 50 309 0.0 0.0 0.00 0.00 0.00
20260510002632 50 309 0.0 0.0 0.00 0.00 0.00
20260510002130 50 309 0.0 0.0 0.00 0.00 0.00
20260510001631 50 309 0.0 0.0 0.00 0.00 0.00
20260510000634 50 340 3.0 2.0 0.00 0.00 0.00
20260510000135 50 353 4.0 4.0 0.00 0.00 0.00
20260509234633 50 18 2.0 1.0 0.00 0.00 0.00
20260509234135 50 49 3.0 3.0 0.00 0.00 0.00
20260509233636 50 48 4.0 3.0 0.00 0.00 0.00
20260509232137 52 44 5.0 6.0 0.00 0.00 0.00
20260509231638 51 38 5.0 5.0 0.00 0.00 0.00
20260509230637 50 354 5.0 5.0 0.00 0.00 0.00
20260509225141 51 48 3.0 3.0 0.00 0.00 0.00
20260509224141 53 44 2.0 2.0 0.00 0.00 0.00
20260509223144 52 60 3.0 3.0 0.00 0.00 0.00
20260509222147 52 32 2.0 2.0 0.00 0.00 0.00
20260509221644 52 11 2.0 2.0 0.00 0.00 0.00
20260509220647 55 60 4.0 4.0 0.00 0.00 0.00
20260509220148 54 58 4.0 4.0 0.00 0.00 0.00
20260509215148 53 52 4.0 4.0 0.00 0.00 0.00
20260509214151 55 62 5.0 4.0 0.00 0.00 0.00
20260509213652 56 58 4.0 4.0 0.00 0.00 0.00
20260509213154 56 76 5.0 5.0 0.00 0.00 0.00
20260509212652 56 60 5.0 6.0 0.00 0.00 0.00
20260509212153 56 51 5.0 5.0 0.00 0.00 0.00
20260509211655 57 49 5.0 5.0 0.00 0.00 0.00
20260509211156 57 38 6.0 6.0 0.00 0.00 0.00
20260509210657 55 45 5.0 5.0 0.00 0.00 0.00
20260509210155 57 49 4.0 4.0 0.00 0.00 0.00
20260509205656 56 45 3.0 4.0 0.00 0.00 0.00
20260509205158 56 37 5.0 4.0 0.00 0.00 0.00
20260509204659 55 34 4.0 4.0 0.00 0.00 0.00
20260509204200 57 31 4.0 5.0 0.00 0.00 0.00
20260509203659 58 77 4.0 5.0 0.00 0.00 0.00
20260509203200 59 51 5.0 5.0 0.00 0.00 0.00
20260509202702 59 68 4.0 4.0 0.00 0.00 0.00
20260509202203 59 48 3.0 2.0 0.00 0.00 0.00
20260509201704 58 31 3.0 2.0 0.00 0.00 0.00
20260509201202 57 359 3.0 2.0 0.00 0.00 0.00
20260509200703 57 6 2.0 2.0 0.00 0.00 0.00
20260509200205 57 25 3.0 3.0 0.00 0.00 0.00
20260509195207 57 42 4.0 5.0 0.00 0.00 0.00
20260509194705 58 42 4.0 4.0 0.00 0.00 0.00
20260509194206 59 51 4.0 4.0 0.00 0.00 0.00
20260509192710 58 44 3.0 3.0 0.00 0.00 0.00
20260509192208 59 46 4.0 3.0 0.00 0.00 0.00
20260509191709 61 46 3.0 4.0 0.00 0.00 0.00
20260509191210 61 70 4.0 4.0 0.00 0.00 0.00
20260509190212 62 69 4.0 5.0 0.00 0.00 0.00
20260509185710 62 49 3.0 3.0 0.00 0.00 0.00
20260509184712 62 68 4.0 3.0 0.00 0.00 0.00
20260509183714 65 45 2.0 3.0 0.00 0.00 0.00
20260509182714 64 48 3.0 2.0 0.00 0.00 0.00
20260509182215 65 45 4.0 3.0 0.00 0.00 0.00
20260509181217 65 37 5.0 5.0 0.00 0.00 0.00
20260509180715 65 51 4.0 4.0 0.00 0.00 0.00
20260509175218 65 56 6.0 6.0 0.00 0.00 0.00
20260509174719 65 44 6.0 7.0 0.00 0.00 0.00
20260509173220 72 23 6.0 6.0 0.00 0.00 0.00
20260509172221 71 18 5.0 5.0 0.00 0.00 0.00
20260509171719 73 34 6.0 9.0 0.00 0.00 0.00
20260509171220 73 17 6.0 6.0 0.00 0.00 0.00
20260509170222 79 41 5.0 5.0 0.00 0.00 0.00
20260509165723 80 58 4.0 4.0 0.00 0.00 0.00
20260509165219 79 45 4.0 4.0 0.00 0.00 0.00
20260509164221 78 101 6.0 5.0 0.00 0.00 0.00
20260509163722 79 69 6.0 8.0 0.00 0.00 0.00
20260509163223 78 65 5.0 5.0 0.00 0.00 0.00
20260509161223 73 21 5.0 5.0 0.00 0.00 0.00
20260509160223 72 18 7.0 5.0 0.00 0.00 0.00
20260509155224 74 63 6.0 4.0 0.00 0.00 0.00
20260509154725 71 339 6.0 5.0 0.00 0.00 0.00
20260509152225 74 48 9.0 10.0 0.00 0.00 0.00
20260509151223 75 75 8.0 7.0 0.00 0.00 0.00
20260509150224 76 59 3.0 3.0 0.00 0.00 0.00
20260509145725 74 110 3.0 3.0 0.00 0.00 0.00
20260509145224 74 70 3.0 5.0 0.00 0.00 0.00
20260509141719 77 305 1.0 1.0 0.00 0.00 0.00
20260509140717 74 8 2.0 4.0 0.00 0.00 0.00
20260509140222 75 340 6.0 3.0 0.00 0.00 0.00
20260509134718 72 357 7.0 7.0 0.00 0.00 0.00
20260509134219 76 42 9.0 7.0 0.00 0.00 0.00
20260509133719 77 13 3.0 2.0 0.00 0.00 0.00
20260509133215 78 82 4.0 4.0 0.00 0.00 0.00
20260509132216 75 28 5.0 8.0 0.00 0.00 0.00
20260509131717 76 55 7.0 7.0 0.00 0.00 0.00
20260509124717 74 356 2.0 1.0 0.00 0.00 0.00
20260509124214 77 80 2.0 1.0 0.00 0.00 0.00
20260509123715 78 58 4.0 1.0 0.00 0.00 0.00
20260509122219 73 349 4.0 3.0 0.00 0.00 0.00
20260509113221 73 28 6.0 5.0 0.00 0.00 0.00
20260509112719 72 20 6.0 5.0 0.00 0.00 0.00
20260509112220 72 0 3.0 5.0 0.00 0.00 0.00
20260509104718 71 193 3.0 3.0 0.00 0.00 0.00
20260509104219 72 184 3.0 2.0 0.00 0.00 0.00
20260509102720 73 131 5.0 7.0 0.00 0.00 0.00
20260509102222 72 128 6.0 6.0 0.00 0.00 0.00
20260509101221 70 153 5.0 5.0 0.00 0.00 0.00
20260509094721 65 0 4.0 4.0 0.00 0.00 0.00
20260509094223 63 3 5.0 3.0 0.00 0.00 0.00
20260509093724 65 305 3.0 3.0 0.00 0.00 0.00
20260509093226 66 49 4.0 6.0 0.00 0.00 0.00
20260509091727 65 27 3.0 3.0 0.00 0.00 0.00
20260509091229 64 49 4.0 5.0 0.00 0.00 0.00
20260509090730 65 193 2.0 2.0 0.00 0.00 0.00
20260509090231 62 93 0.0 3.0 0.00 0.00 0.00
20260509085730 62 345 1.0 1.0 0.00 0.00 0.00
20260509084234 64 141 5.0 4.0 0.00 0.00 0.00
20260509083735 65 156 3.0 5.0 0.00 0.00 0.00
20260509083233 63 128 3.0 4.0 0.00 0.00 0.00
20260509081238 62 145 5.0 4.0 0.00 0.00 0.00
20260509080238 59 3 2.0 0.0 0.00 0.00 0.00
20260509075241 60 347 0.0 0.0 0.00 0.00 0.00
20260509072248 56 46 4.0 3.0 0.00 0.00 0.00
20260509070749 54 24 3.0 3.0 0.00 0.00 0.00
20260509070251 54 55 5.0 4.0 0.00 0.00 0.00
20260509065752 53 24 3.0 4.0 0.00 0.00 0.00
20260509065250 53 55 2.0 4.0 0.00 0.00 0.00
20260509064751 52 44 5.0 6.0 0.00 0.00 0.00
20260509064253 51 58 7.0 6.0 0.00 0.00 0.00
20260509063754 50 52 4.0 4.0 0.00 0.00 0.00
20260509063256 49 14 5.0 5.0 0.00 0.00 0.00
20260509062753 49 0 6.0 5.0 0.00 0.00 0.00
20260509062255 50 338 5.0 5.0 0.00 0.00 0.00
20260509061756 49 8 4.0 5.0 0.00 0.00 0.00
20260509061258 48 356 7.0 5.0 0.00 0.00 0.00
20260509060257 48 336 6.0 5.0 0.00 0.00 0.00